Track O3B FM7 now! 10-day predictions O3B FM7 is classified as:
1 40081U 14038C 18108.31660083 -.00000018 +00000-0 +00000-0 0 9994 2 40081 000.0390 016.5889 0003054 350.7955 352.6218 05.00115804068803